Mobile Downtown, AL

3:45 AM CDT on June 28, 2017 (GMT -0500)
Mobile Downtown

Weather History for KBFM - April, 2013

Change the Weather History Date:

Friday, April 19, 2013

  Actual Average Record
Temperature  
Mean Temperature 60 °F -  
Max Temperature 75 °F 75 °F 84 °F (2006)
Min Temperature 45 °F 56 °F 43 °F (2001)
Degree Days  
Heating Degree Days 5    
Growing Degree Days 10 (Base 50)    
Moisture  
Dew Point 56 °F    
Average Humidity 91    
Maximum Humidity 97    
Minimum Humidity 82    
Precipitation  
Precipitation 0.30 in - - ()
Sea Level Pressure  
Sea Level Pressure 29.99 in    
Wind  
Wind Speed 12 mph (NW)    
Max Wind Speed 21 mph    
Max Gust Speed 32 mph    
Visibility 9 miles    
Events Rain , Thunderstorm    
Averages and records for this station are not official NWS values.
T = Trace of Precipitation, MM = Missing Value Source: NWS Daily Summary

Daily Weather History Graph

Daily Weather History Graph

Search for Another Location

Airport or City:

Trip Planner

Search our weather history database for the weather conditions in past years. The results will help you decide how hot, cold, wet, or windy it might be!

Date:

Astronomy

Apr. 19, 2013 Rise Set
Actual Time 6:20 AM CDT 7:22 PM CDT
Civil Twilight 5:55 AM CDT 7:47 PM CDT
Nautical Twilight 5:25 AM CDT 8:17 PM CDT
Astronomical Twilight 4:55 AM CDT 8:47 PM CDT
Moon 1:31 PM CDT (4/19) 2:09 AM CDT (4/19)
Length of Visible Light 13h 52m
Length of Day
13h 02m
First Quarter, 62% of the Moon is Illuminated
Apr 19
First Quarter
Apr 25
Full
May 2
Last Quarter
May 9
New
May 17
First Quarter

Hourly Weather History & Observations

Time (CDT) Temp. Dew Point Humidity Pressure Visibility Wind Dir Wind Speed Gust Speed Precip Events Conditions
12:53 AM 73.9 °F 73.0 °F 97% 29.87 in 8.0 mi South 10.4 mph 17.3 mph N/A   Overcast
1:53 AM 73.9 °F 73.0 °F 97% 29.85 in 8.0 mi South 11.5 mph 18.4 mph N/A   Overcast
2:50 AM 75.2 °F 71.6 °F 89% 29.83 in 9.0 mi South 10.4 mph 21.9 mph N/A   Overcast
2:53 AM 75.0 °F 72.0 °F 90% 29.83 in 9.0 mi South 9.2 mph 21.9 mph N/A   Overcast
3:02 AM 75.2 °F 73.4 °F 94% 29.84 in 9.0 mi South 11.5 mph 18.4 mph N/A   Overcast
3:12 AM 75.2 °F 71.6 °F 89% 29.84 in 10.0 mi South 11.5 mph 18.4 mph N/A   Overcast
3:53 AM 75.0 °F 72.0 °F 90% 29.83 in 10.0 mi SSW 10.4 mph 18.4 mph N/A   Overcast
4:53 AM 75.0 °F 71.1 °F 87% 29.84 in 10.0 mi SSW 12.7 mph 25.3 mph N/A   Mostly Cloudy
5:42 AM 60.8 °F 59.0 °F 94% 29.87 in 10.0 mi NW 19.6 mph 32.2 mph 0.00 in Rain Light Rain
5:53 AM 60.1 °F 59.0 °F 96% 29.86 in 7.0 mi NNW 13.8 mph 23.0 mph 0.03 in Rain Light Rain
6:17 AM 60.8 °F 57.2 °F 88% 29.88 in 10.0 mi NW 20.7 mph 26.5 mph 0.02 in Rain Light Rain
6:29 AM 60.8 °F 57.2 °F 88% 29.91 in 10.0 mi NW 17.3 mph 24.2 mph 0.02 in Thunderstorm Thunderstorm
6:36 AM 60.8 °F 57.2 °F 88% 29.91 in 10.0 mi NW 18.4 mph 23.0 mph 0.02 in Rain Light Rain
6:53 AM 59.0 °F 57.9 °F 96% 29.93 in 10.0 mi NW 13.8 mph - 0.09 in Rain Light Rain
7:00 AM 59.0 °F 57.2 °F 94% 29.93 in 10.0 mi NNW 16.1 mph 23.0 mph 0.00 in Rain Light Rain
7:53 AM 57.9 °F 55.9 °F 93% 29.98 in 10.0 mi NNW 19.6 mph - 0.00 in Rain Light Rain
8:53 AM 54.0 °F 52.0 °F 93% 30.04 in 5.0 mi NW 16.1 mph 24.2 mph 0.04 in Rain Light Rain
9:53 AM 54.0 °F 53.1 °F 97% 30.04 in 10.0 mi NW 15.0 mph - 0.05 in   Overcast
10:53 AM 53.1 °F 50.0 °F 89% 30.06 in 10.0 mi NW 12.7 mph 25.3 mph N/A   Overcast
10:57 AM 53.6 °F 51.8 °F 94% 30.05 in 10.0 mi NNW 17.3 mph 23.0 mph N/A   Overcast
11:30 AM 53.6 °F 50.0 °F 88% 30.05 in 10.0 mi NNW 19.6 mph 26.5 mph N/A   Overcast
11:53 AM 53.1 °F 50.0 °F 89% 30.05 in 10.0 mi NNW 12.7 mph - N/A   Overcast
12:31 PM 53.6 °F 48.2 °F 82% 30.05 in 10.0 mi NNW 18.4 mph - 0.00 in Rain Light Rain
12:53 PM 52.0 °F 48.0 °F 86% 30.08 in 10.0 mi NNW 20.7 mph 32.2 mph 0.00 in Rain Light Rain
1:14 PM 51.8 °F 48.2 °F 88% 30.07 in 10.0 mi NNW 15.0 mph 21.9 mph 0.00 in   Overcast
1:53 PM 52.0 °F 48.0 °F 86% 30.09 in 6.0 mi NW 10.4 mph - 0.00 in Rain Light Rain
2:53 PM 51.1 °F 46.9 °F 86% 30.05 in 7.0 mi NNW 11.5 mph - 0.04 in Rain Light Rain
3:53 PM 50.0 °F 46.9 °F 89% 30.02 in 10.0 mi NNW 15.0 mph - 0.03 in Rain Light Rain
4:53 PM 50.0 °F 46.9 °F 89% 30.04 in 10.0 mi NNW 6.9 mph - 0.01 in Rain Light Rain
5:53 PM 51.1 °F 48.0 °F 89% 30.07 in 10.0 mi WNW 3.5 mph - 0.01 in   Clear
6:53 PM 50.0 °F 48.0 °F 93% 30.09 in 10.0 mi Calm Calm - N/A   Clear
7:53 PM 50.0 °F 48.9 °F 96% 30.13 in 10.0 mi West 3.5 mph - N/A   Clear
8:53 PM 48.9 °F 46.0 °F 90% 30.14 in 10.0 mi NW 4.6 mph - N/A   Clear
9:53 PM 48.0 °F 45.0 °F 89% 30.16 in 10.0 mi Calm Calm - N/A   Clear
10:53 PM 45.0 °F 44.1 °F 97% 30.18 in 7.0 mi Calm Calm - N/A   Clear
11:53 PM 46.0 °F 44.1 °F 93% 30.19 in 10.0 mi Calm Calm - N/A   Clear